Flag for Spain Weather past 2 weeks in Sevilla, Spain

Now
68 °F

Passing clouds.


Feels Like: 68 °F
Forecast: 59 / 83 °F
Wind: 5 mph from West

Location: Sevilla / San Pablo

Current Time: May 24, 2015 at 11:44:47 PM

Latest Report: May 24, 2015 at 10:30 PM


Visibility: N/A

Pressure: 29.95 "Hg

Humidity: 60%

Dew point: 54 °F

Location of SevillaLocation

Historic Weather in Sevilla — Graph

°F

Sevilla temperature yesterday

Maximum temperature yesterday: 86 °F (at 5:00 PM)
Minimum temperature yesterday: 59 °F (at 5:30 AM)
Average temperature yesterday: 73 °F

Past Weeks' High & Low Weather Summary

 TemperatureHumidityPressure
High102 °F (May 13, 4:30 PM)94% (May 20, 6:00 AM)30.18 "Hg (May 20, 6:00 AM)
Low57 °F (May 20, 6:00 AM)8% (May 14, 6:30 PM)29.77 "Hg (May 19, 7:30 PM)
Average76 °F41%30.03 "Hg
* Reported May 9 10:00 PM — May 24 10:30 PM, Sevilla, Weather by CustomWeather, © 2015

Note: Actual official high and low records may vary slightly from our data, if they occured in-between our weather recording intervals... More about our weather records

Advertising

Sevilla weather history for previous 24 hours

 ConditionsComfort  
Time TempWeatherWind HumidityBarometerVisibility
10:30 PM
Sun, May 24
68 °FPassing clouds.5 mph60%29.95 "HgN/A
10:00 PM68 °FPassing clouds.10 mph56%29.98 "HgN/A
9:30 PM72 °FPassing clouds.6 mph36%29.98 "HgN/A
9:00 PM73 °FPassing clouds.7 mph31%29.95 "HgN/A
8:30 PM75 °FPassing clouds.6 mph31%29.92 "HgN/A
8:00 PM75 °FPassing clouds.5 mph31%29.92 "HgN/A
7:30 PM77 °FPassing clouds.5 mph28%29.92 "HgN/A
7:00 PM77 °FPassing clouds.6 mph28%29.92 "HgN/A
6:30 PM79 °FSunny.3 mph26%29.92 "Hg10 mi
6:00 PM79 °FPassing clouds.1 mph24%29.92 "HgN/A
5:30 PM79 °FPassing clouds.2 mph26%29.92 "HgN/A
5:00 PM79 °FPassing clouds.5 mph26%29.92 "HgN/A
4:30 PM77 °FPassing clouds.2 mph28%29.92 "HgN/A
4:00 PM77 °FPassing clouds.6 mph28%29.95 "HgN/A
3:30 PM75 °FPassing clouds.7 mph29%29.95 "HgN/A
3:00 PM75 °FPassing clouds.5 mph29%29.95 "HgN/A
2:30 PM75 °FPassing clouds.5 mph29%29.98 "HgN/A
2:00 PM75 °FPassing clouds.3 mph29%29.98 "HgN/A
1:30 PM73 °FPassing clouds.5 mph33%29.98 "HgN/A
1:00 PM73 °FPassing clouds.2 mph38%29.98 "HgN/A
12:30 PM72 °FPassing clouds.1 mph44%29.98 "HgN/A
12:00 PM70 °FPassing clouds.No wind46%29.98 "HgN/A
11:30 AM66 °FPassing clouds.No wind56%29.98 "HgN/A
11:00 AM68 °FSunny.1 mph53%29.98 "Hg10 mi
10:30 AM66 °FSunny.2 mph56%29.95 "Hg10 mi
10:00 AM66 °FSunny.No wind56%29.95 "Hg10 mi
9:30 AM66 °FSunny.No wind60%29.95 "Hg10 mi
9:00 AM64 °FSunny.No wind64%29.95 "Hg10 mi
8:30 AM64 °FSunny.No wind60%29.95 "Hg10 mi
8:00 AM63 °FClear.No wind64%29.92 "Hg10 mi
7:30 AM63 °FClear.No wind64%29.92 "Hg10 mi
7:00 AM63 °FClear.No wind64%29.92 "Hg10 mi
6:30 AM63 °FClear.1 mph59%29.92 "Hg10 mi
6:00 AM63 °FClear.2 mph59%29.92 "Hg10 mi
5:30 AM63 °FClear.1 mph59%29.92 "Hg10 mi
5:00 AM63 °FClear.2 mph59%29.92 "Hg10 mi
4:30 AM63 °FClear.3 mph59%29.92 "Hg10 mi
4:00 AM64 °FPassing clouds.6 mph52%29.95 "HgN/A
1:00 AM68 °FPassing clouds.10 mph56%29.95 "HgN/A
12:30 AM68 °FPassing clouds.10 mph56%29.95 "HgN/A
12:00 AM70 °FPassing clouds.10 mph53%29.95 "HgN/A
11:30 PM
Sat, May 23
70 °FPassing clouds.12 mph50%29.95 "HgN/A
11:00 PM70 °FPassing clouds.12 mph50%29.92 "HgN/A
Weather by CustomWeather, © 2015

See weather overviewHow to use our weather pages